Tracking 18843 objects as of 20-November-2017
HD Live streaming from Space Station
objects crossing your sky now

DELTA 4 R/B

Track DELTA 4 R/B now!


NORAD ID: 39169
Int'l Code: 2013-024B
Perigee: 844.0 km
Apogee: 65,803.2 km
Inclination: 21.7 °
Period: 1,311.8 minutes
Semi major axis: 39694 km
RCS: 87.9633 m2 (large)
Launch date: May 25, 2013
Source: United States (US)
Launch site: AIR FORCE EASTERN TEST RANGE (AFETR)

Note: This is a ROCKET BODY
aabbcc
Your satellite tracking list
Your tracking list is empty




NASA's NSSDC Master Catalog

Two Line Element Set (TLE):
1 39169U 13024B   17196.40644373 0.00000000  00000-0  00000-0 0    06
2 39169  21.7100 203.4487 8182378 206.2319  62.5517  1.09775576    02
Source of the keplerian elements: McCants